Location: Poughquag
(41.6090°N, 73.6820°W)
Time: 07:52:25
(UTC-05:00)

STRAND 1 - Pass Details

Date: 01 December 2023
Orbit: 766 x 778 km, 98.4° (Epoch: 24 February)

Event Time Altitude Azimuth Distance (km) Brightness Sun altitude
Exits shadow 18:44:23 44° 7° (N) 1,061 ? -25.4°
Maximum altitude 18:46:04 82° 285° (WNW) 779 ? -25.7°
Drops below altitude 10° 18:51:08 10° 198° (SSW) 2,299 ? -26.6°
Sets 18:53:26 0° 198° (SSW) 3,223 ? -27.1°
